Simultaneous Nadir Overpasses (SNOs) Predictions

Prediction of SNOs between GOES-16 and METOP-C Satellite Orbit:

Table of predicted SNOs for the next 14.0 days since TLE Epoch: 4/11/2019
Index Date Time (GOES-16) GOES-16 Lat,Lon METOP-C Lat,Lon Distance(km) Time Diff (sec)
1 04/11/2019 14:24:04 0.01, -75.21 -0.43, -73.11 238.59 80
2 04/13/2019 02:43:07 -0.01, -75.21 -0.56, -77.72 286.33 80
3 04/14/2019 02:19:47 -0.01, -75.21 0.51, -72.72 283.09 80
4 04/15/2019 14:38:40 0.01, -75.23 0.49, -77.28 234.33 80
5 04/16/2019 14:20:41 0.01, -75.24 -0.64, -72.29 335.59 80
6 04/18/2019 02:39:43 -0.01, -75.24 -0.36, -76.90 188.08 80
7 04/19/2019 02:16:24 -0.01, -75.26 0.72, -71.90 382.28 80
8 04/20/2019 14:35:16 0.01, -75.29 0.28, -76.46 133.67 80
9 04/21/2019 14:14:38 0.01, -75.30 -0.85, -71.47 437.02 80
10 04/23/2019 02:36:19 -0.02, -75.32 -0.21, -76.06 85.66 80
11 04/24/2019 02:13:01 -0.01, -75.34 0.92, -71.08 485.23 80




NCC Satellite Simultaneous Nadir Overpasses (SNOs) Prediction Service
